Location: Campestrin
(46.4667°N, 11.7167°E)
Time: 03:29:05
(UTC+00:00)

Cosmos-2242 - Pass Details

Date: 18 April 2021
Orbit: 589 x 618 km, 82.5° (Epoch: 16 May)

Event Time Altitude Azimuth Distance (km) Brightness Sun altitude
Exits shadow 20:25:50 63° 147° (SSE) 680 2.9 -21.4°
Maximum altitude 20:26:21 72° 97° (E) 642 2.9 -21.5°
Drops below altitude 10° 20:30:40 10° 13° (NNE) 1,960 6.0 -22.0°
Sets 20:32:53 0° 11° (NNE) 2,863 7.0 -22.3°
